Flag for Canada Weather past 2 weeks in Gander, Newfoundland and Labrador, Canada

Now
54 °F

Partly sunny.


Feels Like: 53 °F
Forecast: 51 / 76 °F
Wind: 3 mph from Southwest

Location: Gander Int. Airport

Current Time: May 26, 2015 at 9:45:23 AM

Latest Report: May 26, 2015 at 8:30 AM


Visibility: 20 mi

Pressure: 30.17 "Hg

Humidity: 72%

Dew point: 45 °F

Location of GanderLocation

Historic Weather in Gander — Graph

°F

Gander temperature yesterday

Maximum temperature yesterday: 68 °F (at 5:30 PM)
Minimum temperature yesterday: 43 °F (at 12:30 AM)
Average temperature yesterday: 54 °F

Past Weeks' High & Low Weather Summary

 TemperatureHumidityPressure
High70 °F (May 19, 5:30 PM)100% (May 12, 8:30 PM)30.50 "Hg (May 12, 8:30 PM)
Low27 °F (May 18, 5:18 AM)24% (May 15, 2:30 PM)29.37 "Hg (May 21, 6:30 AM)
Average46 °F72%29.97 "Hg
* Reported May 11 8:30 AM — May 26 8:30 AM, Gander, Weather by CustomWeather, © 2015

Note: Actual official high and low records may vary slightly from our data, if they occured in-between our weather recording intervals... More about our weather records

Advertising

Gander weather history for previous 24 hours

 ConditionsComfort  
Time TempWeatherWind HumidityBarometerVisibility
8:30 AM
Tue, May 26
54 °FPartly sunny.3 mph72%30.17 "Hg20 mi
7:30 AM52 °FPartly sunny.13 mph72%30.16 "Hg15 mi
6:30 AM50 °FPartly sunny.12 mph82%30.16 "Hg15 mi
5:30 AM48 °FSprinkles. Passing clouds.3 mph82%30.14 "Hg15 mi
4:30 AM50 °FPassing clouds.6 mph76%30.13 "Hg20 mi
3:30 AM50 °FPassing clouds.9 mph76%30.12 "Hg20 mi
2:30 AM50 °FPassing clouds.13 mph76%30.11 "Hg20 mi
1:30 AM50 °FPassing clouds.13 mph76%30.10 "Hg20 mi
12:30 AM50 °FPassing clouds.8 mph76%30.09 "Hg20 mi
11:30 PM
Mon, May 25
54 °FPassing clouds.13 mph67%30.09 "Hg20 mi
10:30 PM55 °FPassing clouds.8 mph63%30.09 "Hg20 mi
9:30 PM59 °FSprinkles. Passing clouds.7 mph55%30.09 "Hg20 mi
8:30 PM63 °FPartly sunny.12 mph42%30.08 "Hg20 mi
7:30 PM64 °FPartly sunny.15 mph37%30.05 "Hg20 mi
6:30 PM66 °FPartly sunny.16 mph37%30.03 "Hg20 mi
5:30 PM68 °FBroken clouds.8 mph33%30.03 "Hg20 mi
4:30 PM64 °FPartly sunny.9 mph40%30.06 "Hg20 mi
3:30 PM63 °FBroken clouds.12 mph39%30.06 "Hg20 mi
2:30 PM63 °FCloudy.14 mph39%30.08 "Hg20 mi
1:30 PM59 °FMostly cloudy.15 mph48%30.09 "Hg20 mi
12:30 PM57 °FMostly cloudy.14 mph51%30.09 "Hg20 mi
11:30 AM54 °FMostly cloudy.14 mph58%30.09 "Hg20 mi
10:30 AM54 °FCloudy.14 mph63%30.09 "Hg20 mi
9:30 AM50 °FMostly cloudy.17 mph71%30.09 "Hg20 mi
Weather by CustomWeather, © 2015

See weather overviewHow to use our weather pages